EI4HQ Weather Reports


Display with metric or nautical units.
time (UTC)temp
F
wind
direction
speed
MPH
gust
MPH
rain 1hr
in
rain 24hr
in
rain mn
in
humidity
%
barometer
mb
20180922045538 49 224 1.0 3.0 0.02 0.04 0.03 92 1016.2
20180922044638 49 224 1.0 3.0 0.02 0.03 0.02 92 1016.2
20180922043738 49 224 1.0 3.0 0.02 0.03 0.02 92 1016.1
20180922042837 50 224 1.0 3.0 0.02 0.02 0.02 92 1016.2
20180922041938 49 213 1.0 3.0 0.02 0.02 0.02 92 1016.3
20180922041037 49 225 2.0 5.0 0.02 0.02 0.02 90 1016.3
20180922040138 50 233 1.0 8.0 0.01 0.02 0.01 91 1016.5
20180922035238 50 236 0.0 3.0 0.01 0.02 0.01 92 1016.3
20180922034338 50 0 0.0 0.0 0.00 0.01 0.00 91 1016.3
20180922033438 50 0 0.0 0.0 0.00 0.01 0.00 91 1016.5
20180922032538 50 251 0.0 2.0 0.00 0.01 0.00 91 1016.4
20180922031638 50 250 0.0 3.0 0.00 0.01 0.00 90 1016.2
20180922030738 50 250 0.0 2.0 0.00 0.01 0.00 90 1016.3
20180922025837 50 245 1.0 4.0 0.00 0.01 0.00 90 1016.1
20180922024938 51 243 2.0 3.0 0.00 0.01 0.00 90 1016.2
20180922024038 51 262 2.0 7.0 0.00 0.01 0.00 91 1016.4
20180922023138 50 265 3.0 6.0 0.00 0.01 0.00 91 1016.7
20180922022238 50 267 3.0 9.0 0.00 0.01 0.00 90 1016.8
20180922021338 50 266 3.0 9.0 0.00 0.01 0.00 90 1016.9
20180922020438 50 265 2.0 6.0 0.00 0.01 0.00 90 1016.9
20180922015538 50 251 2.0 6.0 0.00 0.01 0.00 90 1016.9
20180922014638 50 258 2.0 6.0 0.00 0.01 0.00 90 1017.0
20180922013738 50 261 2.0 7.0 0.00 0.01 0.00 90 1017.2
20180922012837 50 251 3.0 6.0 0.00 0.01 0.00 91 1017.2
20180922011938 49 256 3.0 6.0 0.00 0.01 0.00 90 1017.3
20180922011038 49 243 2.0 4.0 0.00 0.01 0.00 90 1017.3
20180922010138 49 259 1.0 3.0 0.00 0.01 0.00 90 1017.2
20180922005238 49 269 2.0 6.0 0.00 0.01 0.00 90 1017.3
20180922004338 49 269 2.0 6.0 0.00 0.01 0.00 90 1017.4
20180922003438 49 263 1.0 3.0 0.00 0.01 0.00 90 1017.2
20180922002538 49 261 1.0 6.0 0.00 0.02 0.00 90 1017.0
20180922001638 49 257 2.0 6.0 0.00 0.02 0.00 90 1017.1
20180922000738 49 258 2.0 4.0 0.00 0.02 0.00 90 1017.2
20180921235838 49 265 2.0 6.0 0.00 0.02 0.00 90 1017.2
20180921234938 49 257 2.0 6.0 0.00 0.02 0.00 90 1017.2
20180921234038 48 263 2.0 4.0 0.00 0.02 0.00 89 1017.2
20180921233143 49 271 1.0 3.0 0.00 0.02 0.00 89 1017.4
20180921232238 49 281 0.0 3.0 0.00 0.02 0.00 89 1017.5
20180921231338 49 281 0.0 2.0 0.00 0.02 0.00 88 1017.3
20180921230438 49 279 1.0 4.0 0.00 0.02 0.00 87 1017.3
20180921225538 49 285 1.0 4.0 0.00 0.02 0.02 88 1017.2
20180921224638 49 281 1.0 3.0 0.00 0.02 0.02 88 1017.4
20180921223738 49 276 1.0 3.0 0.00 0.02 0.02 87 1017.5
20180921222838 49 270 2.0 6.0 0.00 0.02 0.02 87 1017.2
20180921221938 49 269 3.0 7.0 0.00 0.02 0.02 87 1017.4
20180921221037 50 266 4.0 9.0 0.00 0.02 0.02 87 1017.3
20180921220138 50 257 4.0 9.0 0.00 0.02 0.02 87 1017.2
20180921215237 49 262 4.0 9.0 0.00 0.02 0.02 88 1017.2
20180921214338 49 267 3.0 6.0 0.00 0.02 0.02 89 1017.2
20180921213438 49 271 3.0 7.0 0.00 0.02 0.02 89 1017.1
20180921212538 49 262 3.0 7.0 0.00 0.02 0.02 89 1017.0
20180921211638 49 261 3.0 7.0 0.00 0.02 0.02 89 1017.4
20180921210738 48 265 2.0 6.0 0.00 0.02 0.02 89 1017.2
20180921205838 49 268 2.0 4.0 0.00 0.02 0.02 88 1017.0
20180921204938 49 256 2.0 4.0 0.00 0.03 0.02 88 1016.9
20180921204038 49 270 1.0 5.0 0.00 0.03 0.02 88 1016.9
20180921203138 49 246 2.0 3.0 0.00 0.03 0.02 88 1016.9
20180921202238 49 205 1.0 3.0 0.00 0.03 0.02 87 1016.9
20180921201338 49 264 1.0 3.0 0.00 0.03 0.02 86 1017.0
20180921200438 49 283 0.0 1.0 0.00 0.03 0.02 85 1016.7
20180921195538 49 283 0.0 3.0 0.00 0.03 0.02 84 1016.7
20180921194638 49 283 0.0 3.0 0.00 0.03 0.02 83 1016.8
20180921193738 50 288 1.0 3.0 0.00 0.03 0.02 83 1016.7
20180921192838 50 281 2.0 8.0 0.00 0.03 0.02 82 1016.5
20180921191938 51 278 3.0 8.0 0.00 0.03 0.02 82 1016.5
20180921191038 51 281 3.0 7.0 0.00 0.03 0.02 83 1016.2
20180921190138 52 276 3.0 8.0 0.00 0.03 0.02 82 1016.2
20180921185238 53 273 3.0 7.0 0.00 0.03 0.02 82 1016.0
20180921184338 53 307 2.0 7.0 0.00 0.03 0.02 81 1016.0
20180921183438 53 320 2.0 9.0 0.00 0.03 0.02 80 1016.1
20180921182538 53 262 2.0 8.0 0.00 0.03 0.02 80 1015.8
20180921181638 53 266 2.0 6.0 0.00 0.03 0.02 79 1015.6
20180921180738 54 277 1.0 6.0 0.00 0.03 0.02 78 1015.6
20180921175838 54 277 2.0 7.0 0.00 0.03 0.02 78 1015.4
20180921174938 54 275 2.0 6.0 0.00 0.03 0.02 77 1015.5
20180921174038 55 293 2.0 7.0 0.00 0.03 0.02 76 1015.3
20180921173138 55 308 2.0 7.0 0.00 0.03 0.02 76 1015.0
20180921172238 55 290 2.0 7.0 0.00 0.03 0.02 75 1014.9
20180921171338 55 288 3.0 10.0 0.00 0.03 0.02 74 1015.0
20180921170438 56 285 4.0 10.0 0.00 0.03 0.02 73 1014.9
20180921164951 56 297 3.0 13.0 0.00 0.03 0.02 71 1014.7
20180921162147 56 319 5.0 12.0 0.00 0.00 0.02 73 1014.6
20180921161247 57 329 4.0 10.0 0.00 0.00 0.02 73 1014.6
20180921160347 57 301 4.0 11.0 0.00 0.00 0.02 73 1014.5
20180921155447 57 292 4.0 11.0 0.00 0.00 0.02 72 1014.3
20180921154547 58 307 3.0 9.0 0.00 0.00 0.02 71 1014.1
20180921153647 59 325 5.0 15.0 0.00 0.00 0.02 72 1014.0
20180921152747 59 327 5.0 15.0 0.00 0.00 0.02 71 1013.9
20180921151847 60 324 5.0 16.0 0.01 0.00 0.02 68 1013.7
20180921150947 61 283 4.0 13.0 0.01 0.00 0.02 64 1013.5
20180921150047 61 277 4.0 14.0 0.01 0.00 0.02 65 1013.4
20180921145148 61 322 4.0 14.0 0.01 0.00 0.02 68 1013.3
20180921144247 61 325 4.0 12.0 0.01 0.00 0.02 72 1013.3
20180921143347 60 311 4.0 11.0 0.01 0.00 0.02 67 1013.2
20180921142447 60 304 4.0 13.0 0.01 0.00 0.02 68 1013.1
20180921141547 59 293 4.0 12.0 0.00 0.00 0.01 70 1013.0
20180921140647 59 294 4.0 14.0 0.00 0.00 0.01 70 1013.0
20180921135748 58 287 6.0 15.0 0.00 0.00 0.01 69 1012.9
20180921134847 58 282 7.0 14.0 0.00 0.00 0.01 69 1012.8
20180921133947 59 289 5.0 15.0 0.00 0.00 0.01 68 1012.7
20180921133047 59 286 7.0 16.0 0.00 0.00 0.01 69 1012.6
20180921132147 59 300 5.0 15.0 0.00 0.00 0.01 71 1012.6
20180921131247 59 290 5.0 17.0 0.00 0.00 0.01 72 1012.6
20180921130347 58 280 6.0 14.0 0.00 0.00 0.01 74 1012.7
20180921125447 57 277 8.0 20.0 0.00 0.00 0.01 75 1012.7
20180921124547 56 281 9.0 20.0 0.00 0.00 0.01 73 1012.7
20180921123647 56 276 9.0 23.0 0.00 0.00 0.01 73 1012.6
20180921122747 56 276 8.0 20.0 0.00 0.00 0.01 72 1012.5
20180921121847 57 279 8.0 19.0 0.00 0.00 0.01 71 1012.3
20180921120947 57 271 7.0 14.0 0.00 0.00 0.01 72 1012.0
20180921120047 57 268 8.0 18.0 0.00 0.00 0.01 71 1011.7
20180921115147 57 280 7.0 16.0 0.00 0.00 0.01 72 1011.5
20180921114247 57 278 7.0 19.0 0.00 0.00 0.01 72 1011.4
20180921113347 58 275 8.0 18.0 0.00 0.00 0.01 75 1011.4
20180921112447 57 269 6.0 14.0 0.00 0.00 0.01 76 1011.4
20180921111547 56 265 5.0 12.0 0.00 0.00 0.01 79 1011.3
20180921110647 55 274 8.0 16.0 0.00 0.00 0.01 74 1011.3
20180921105747 56 279 8.0 14.0 0.00 0.00 0.01 74 1010.9
20180921104847 56 278 6.0 15.0 0.00 0.00 0.01 74 1010.6
20180921103947 56 285 5.0 12.0 0.00 0.00 0.01 76 1010.6
20180921103047 57 282 7.0 18.0 0.00 0.00 0.01 76 1010.6
20180921102147 56 281 8.0 17.0 0.00 0.00 0.01 78 1010.4
20180921101247 56 279 8.0 17.0 0.00 0.00 0.01 78 1010.2
20180921100347 56 281 8.0 21.0 0.00 0.00 0.01 78 1009.8
20180921095448 55 279 7.0 18.0 0.00 0.00 0.01 81 1009.8
20180921094547 55 273 6.0 19.0 0.00 0.00 0.01 82 1009.6
20180921093643 54 273 7.0 14.0 0.00 0.00 0.01 83 1009.5
20180921092749 53 271 7.0 19.0 0.00 0.00 0.01 84 1009.4
20180921091843 53 271 6.0 12.0 0.00 0.00 0.01 83 1009.1
20180921090943 53 270 8.0 19.0 0.00 0.00 0.01 82 1008.9
20180921090039 54 271 9.0 20.0 0.00 0.00 0.01 84 1008.6
20180921085144 53 274 10.0 16.0 0.00 0.00 0.01 85 1008.4
20180921084239 52 274 8.0 17.0 0.00 0.00 0.01 86 1008.2
20180921082439 51 272 9.0 21.0 0.00 0.00 0.01 89 1007.8
20180921081540 49 267 8.0 23.0 0.00 0.00 0.01 91 1007.6
20180921080639 49 258 6.0 12.0 0.00 0.00 0.01 92 1007.6
20180921075739 48 257 6.0 12.0 0.00 0.00 0.01 92 1007.6
20180921074839 48 262 6.0 14.0 0.00 0.00 0.01 93 1007.3
20180921073939 47 264 6.0 12.0 0.00 0.00 0.01 93 1007.2
20180921073044 46 259 7.0 17.0 0.00 0.00 0.01 94 1007.0
20180921072143 46 258 7.0 15.0 0.00 0.01 0.01 94 1006.9
20180921071239 46 255 7.0 13.0 0.00 0.01 0.01 94 1006.8
20180921070343 45 254 7.0 16.0 0.00 0.01 0.01 95 1006.7
20180921065439 44 256 7.0 12.0 0.00 0.02 0.01 95 1006.6
20180921064542 44 253 6.0 13.0 0.00 0.02 0.01 94 1006.5
20180921063639 44 246 7.0 14.0 0.00 0.02 0.01 95 1006.3
20180921062741 44 252 7.0 13.0 0.00 0.02 0.01 95 1006.3
20180921061839 43 253 6.0 11.0 0.00 0.02 0.01 95 1006.1
20180921060939 43 248 6.0 12.0 0.00 0.02 0.01 95 1006.0
20180921060039 43 250 6.0 12.0 0.00 0.02 0.01 95 1006.0
20180921055139 43 248 6.0 12.0 0.00 0.02 0.01 94 1006.1
20180921054239 43 252 6.0 11.0 0.00 0.02 0.01 95 1006.1
20180921053339 43 250 6.0 11.0 0.00 0.02 0.01 95 1005.9
20180921052439 43 250 7.0 12.0 0.00 0.02 0.01 95 1005.9
20180921051539 43 255 6.0 13.0 0.00 0.02 0.01 95 1005.8
20180921050639 42 251 6.0 11.0 0.00 0.02 0.01 95 1005.7